TimeEST,TemperatureF,Dew PointF,Humidity,Sea Level PressureIn,VisibilityMPH,Wind Direction,Wind SpeedMPH,Gust SpeedMPH,PrecipitationIn,Events,Conditions,WindDirDegrees,DateUTC
12:15 AM,19.4,8.6,63,30.34,10.0,Calm,Calm,-,N/A,,Clear,0,2013-01-09 05:15:00
12:55 AM,19.4,8.6,63,30.36,10.0,Calm,Calm,-,N/A,,Clear,0,2013-01-09 05:55:00
1:15 AM,19.4,1.4,46,30.36,10.0,Calm,Calm,-,N/A,,Clear,0,2013-01-09 06:15:00
1:35 AM,19.4,3.2,49,30.36,10.0,Calm,Calm,-,N/A,,Clear,0,2013-01-09 06:35:00
1:55 AM,19.4,1.4,46,30.36,10.0,Calm,Calm,-,N/A,,Clear,0,2013-01-09 06:55:00
2:15 AM,17.6,3.2,53,30.37,10.0,Calm,Calm,-,N/A,,Clear,0,2013-01-09 07:15:00
2:35 AM,19.4,5.0,54,30.36,10.0,Calm,Calm,-,N/A,,Clear,0,2013-01-09 07:35:00
2:55 AM,17.6,8.6,68,30.36,10.0,Calm,Calm,-,N/A,,Clear,0,2013-01-09 07:55:00
3:15 AM,17.6,3.2,53,30.35,10.0,Calm,Calm,-,N/A,,Clear,0,2013-01-09 08:15:00
3:35 AM,15.8,3.2,58,30.35,10.0,Calm,Calm,-,N/A,,Clear,0,2013-01-09 08:35:00
3:55 AM,14.0,-4.0,45,30.35,6.0,WSW,4.6,-,N/A,,Clear,250,2013-01-09 08:55:00
4:15 AM,14.0,-2.2,49,30.34,7.0,Calm,Calm,-,N/A,,Clear,0,2013-01-09 09:15:00
4:35 AM,14.0,1.4,57,30.34,6.0,Calm,Calm,-,N/A,,Clear,0,2013-01-09 09:35:00
4:55 AM,12.2,6.8,79,30.34,7.0,Calm,Calm,-,N/A,,Clear,0,2013-01-09 09:55:00
5:15 AM,12.2,-9999,N/A,30.35,7.0,WSW,4.6,-,N/A,,Clear,240,2013-01-09 10:15:00
5:35 AM,12.2,3.2,67,30.34,7.0,Calm,Calm,-,N/A,,Clear,0,2013-01-09 10:35:00
5:55 AM,10.4,-13.0,34,30.35,8.0,WSW,3.5,-,N/A,,Clear,240,2013-01-09 10:55:00
6:15 AM,12.2,-2.2,53,30.36,7.0,West,3.5,-,N/A,,Clear,260,2013-01-09 11:15:00
6:35 AM,10.4,-9999,N/A,30.37,7.0,Calm,Calm,-,N/A,,Clear,0,2013-01-09 11:35:00
6:55 AM,10.4,-0.4,62,30.37,7.0,West,3.5,-,N/A,,Clear,260,2013-01-09 11:55:00
7:35 AM,10.4,-4.0,52,30.38,5.0,West,3.5,-,N/A,,Clear,260,2013-01-09 12:35:00
7:55 AM,10.4,-9999,N/A,30.38,5.0,WSW,3.5,-,N/A,,Clear,250,2013-01-09 12:55:00
8:15 AM,12.2,8.6,85,30.37,8.0,Calm,Calm,-,N/A,,Clear,0,2013-01-09 13:15:00
8:35 AM,-9999,-9999,N/A,30.35,10.0,Calm,Calm,-,N/A,,Mostly Cloudy,0,2013-01-09 13:35:00
8:55 AM,-9999,-9999,N/A,30.35,9.0,Calm,Calm,-,N/A,,Overcast,0,2013-01-09 13:55:00
9:15 AM,-9999,-9999,N/A,30.35,6.0,Calm,Calm,-,N/A,,Mostly Cloudy,0,2013-01-09 14:15:00
9:35 AM,-9999,-9999,N/A,30.35,10.0,Calm,Calm,-,N/A,,Mostly Cloudy,0,2013-01-09 14:35:00
9:55 AM,23.0,17.6,80,30.35,7.0,Calm,Calm,-,N/A,,Overcast,0,2013-01-09 14:55:00
10:15 AM,24.8,21.2,86,30.33,6.0,Calm,Calm,-,N/A,,Mostly Cloudy,0,2013-01-09 15:15:00
10:35 AM,26.6,21.2,80,30.31,8.0,Calm,Calm,-,N/A,,Scattered Clouds,0,2013-01-09 15:35:00
10:55 AM,28.4,21.2,74,30.29,8.0,Calm,Calm,-,N/A,,Partly Cloudy,0,2013-01-09 15:55:00
11:15 AM,33.8,24.8,70,30.30,10.0,SW,4.6,-,N/A,,Clear,230,2013-01-09 16:15:00
11:35 AM,33.8,23.0,65,30.27,10.0,Calm,Calm,-,N/A,,Clear,0,2013-01-09 16:35:00
11:55 AM,33.8,24.8,70,30.24,10.0,Calm,Calm,-,N/A,,Clear,0,2013-01-09 16:55:00
12:15 PM,30.2,24.8,80,30.22,10.0,Calm,Calm,-,N/A,,Clear,0,2013-01-09 17:15:00
12:35 PM,35.6,24.8,65,30.19,10.0,Calm,Calm,-,N/A,,Clear,0,2013-01-09 17:35:00
12:55 PM,37.4,23.0,56,30.17,10.0,SSW,4.6,-,N/A,,Clear,210,2013-01-09 17:55:00
1:15 PM,37.4,24.8,60,30.15,10.0,South,5.8,-,N/A,,Clear,180,2013-01-09 18:15:00
1:35 PM,37.4,23.0,56,30.13,10.0,SSW,4.6,-,N/A,,Clear,200,2013-01-09 18:35:00
1:55 PM,37.4,23.0,56,30.15,10.0,SW,4.6,-,N/A,,Clear,220,2013-01-09 18:55:00
2:15 PM,37.4,21.2,52,30.15,10.0,SSW,4.6,-,N/A,,Clear,200,2013-01-09 19:15:00
2:35 PM,37.4,24.8,60,30.15,10.0,SSW,6.9,-,N/A,,Clear,210,2013-01-09 19:35:00
2:55 PM,35.6,24.8,65,30.12,10.0,South,3.5,-,N/A,,Clear,190,2013-01-09 19:55:00
3:15 PM,35.6,23.0,60,30.10,10.0,South,3.5,-,N/A,,Mostly Cloudy,190,2013-01-09 20:15:00
3:35 PM,35.6,23.0,60,30.08,10.0,Calm,Calm,-,N/A,,Overcast,0,2013-01-09 20:35:00
3:55 PM,35.6,23.0,60,30.07,10.0,Calm,Calm,-,N/A,,Overcast,0,2013-01-09 20:55:00
4:15 PM,35.6,23.0,60,30.04,10.0,Calm,Calm,-,N/A,,Overcast,0,2013-01-09 21:15:00
4:35 PM,33.8,26.6,75,30.02,10.0,Calm,Calm,-,N/A,,Overcast,0,2013-01-09 21:35:00
4:55 PM,33.8,28.4,81,30.01,10.0,Calm,Calm,-,N/A,,Overcast,0,2013-01-09 21:55:00
5:15 PM,33.8,26.6,75,29.98,10.0,South,3.5,-,N/A,,Overcast,180,2013-01-09 22:15:00
5:35 PM,35.6,26.6,70,29.97,10.0,South,5.8,-,N/A,,Overcast,190,2013-01-09 22:35:00
5:55 PM,35.6,28.4,75,29.94,10.0,South,5.8,-,N/A,,Overcast,190,2013-01-09 22:55:00
6:15 PM,37.4,30.2,75,29.95,10.0,SSW,8.1,-,N/A,,Overcast,210,2013-01-09 23:15:00
6:35 PM,35.6,30.2,81,29.94,10.0,SW,6.9,-,N/A,,Overcast,220,2013-01-09 23:35:00
6:55 PM,35.6,28.4,75,29.94,10.0,SW,6.9,-,N/A,,Mostly Cloudy,220,2013-01-09 23:55:00
7:15 PM,35.6,28.4,75,29.93,10.0,SW,6.9,-,N/A,,Partly Cloudy,230,2013-01-10 00:15:00
7:35 PM,35.6,26.6,70,29.92,10.0,SW,8.1,-,N/A,,Clear,220,2013-01-10 00:35:00
7:55 PM,33.8,26.6,75,29.93,10.0,West,8.1,-,N/A,,Clear,260,2013-01-10 00:55:00
8:15 PM,32.0,28.4,87,29.92,10.0,WSW,9.2,-,N/A,,Clear,240,2013-01-10 01:15:00
8:35 PM,33.8,28.4,81,29.92,10.0,WSW,9.2,-,N/A,,Clear,250,2013-01-10 01:35:00
9:15 PM,33.8,28.4,81,29.91,10.0,SW,12.7,-,N/A,,Clear,230,2013-01-10 02:15:00
9:35 PM,35.6,28.4,75,29.91,10.0,SW,13.8,-,N/A,,Clear,230,2013-01-10 02:35:00
9:55 PM,35.6,32.0,87,29.92,10.0,WSW,13.8,19.6,N/A,,Scattered Clouds,240,2013-01-10 02:55:00
10:15 PM,35.6,28.4,75,29.92,10.0,WSW,10.4,-,N/A,,Scattered Clouds,250,2013-01-10 03:15:00
10:35 PM,35.6,28.4,75,29.93,10.0,West,8.1,-,N/A,,Clear,260,2013-01-10 03:35:00
10:55 PM,37.4,28.4,70,29.93,10.0,West,10.4,-,N/A,,Scattered Clouds,270,2013-01-10 03:55:00
11:15 PM,37.4,30.2,75,29.93,10.0,WSW,13.8,-,N/A,,Overcast,250,2013-01-10 04:15:00
11:35 PM,37.4,30.2,75,29.93,10.0,WSW,11.5,-,N/A,,Partly Cloudy,250,2013-01-10 04:35:00
11:55 PM,39.2,28.4,65,29.93,10.0,West,15.0,20.7,N/A,,Partly Cloudy,270,2013-01-10 04:55:00